This is the latest recevied weather packets stored in our database for station/object KJ5FA-10. If no packets are shown the sender has not sent any weather packets the latest 10 day(s).
| Time | Temp. | Humidity | Pressure | Rain* | Wind** | Luminosity | Snow |
|---|---|---|---|---|---|---|---|
| 1787777683 | 35° C | 44% | 1012.6 hPa | 0 mm | - | - | - |
| 1787776783 | 36.11° C | 42% | 1012.8 hPa | 0 mm | - | - | - |
| 1787774984 | 37.22° C | 39% | 1013 hPa | 0 mm | - | - | - |
| 1787773183 | 37.22° C | 39% | 1013.5 hPa | 0 mm | - | - | - |
| 1787771384 | 36.67° C | 42% | 1014 hPa | 0 mm | - | - | - |
| 1787770484 | 36.11° C | 43% | 1014.5 hPa | 0 mm | - | - | - |
| 1787769583 | 36.67° C | 41% | 1014.4 hPa | 0 mm | - | - | - |
| 1787768683 | 36.11° C | 43% | 1014.8 hPa | 0 mm | - | - | - |
| 1787767783 | 35.56° C | 45% | 1014.6 hPa | 0 mm | - | - | - |
| 1787766884 | 35° C | 47% | 1014.8 hPa | 0 mm | - | - | - |
| 1787765983 | 33.89° C | 52% | 1015.1 hPa | 0 mm | - | - | - |
| 1787765083 | 32.78° C | 53% | 1015.4 hPa | 0 mm | - | - | - |
| 1787764183 | 33.33° C | 52% | 1015.5 hPa | 0 mm | - | - | - |
| 1787763283 | 33.33° C | 51% | 1015.6 hPa | 0 mm | - | - | - |
| 1787762383 | 31.67° C | 55% | 1015.7 hPa | 0 mm | - | - | - |
| 1787761487 | 31.11° C | 58% | 1015.7 hPa | 0 mm | - | - | - |
| 1787760583 | 30.56° C | 60% | 1015.6 hPa | 0 mm | - | - | - |
| 1787759683 | 30° C | 61% | 1015.4 hPa | 0 mm | - | - | - |
| 1787758783 | 30° C | 62% | 1015.6 hPa | 0 mm | - | - | - |
| 1787756983 | 28.33° C | 66% | 1015.6 hPa | 0 mm | - | - | - |
| 1787756083 | 27.22° C | 72% | 1015.6 hPa | 0 mm | - | - | - |
| 1787755314 | 27.78° C | 71% | 1015.5 hPa | 0 mm | - | - | - |
| 1787755183 | 27.78° C | 71% | 1015.5 hPa | 0 mm | - | - | - |
| 1787753383 | 27.22° C | 70% | 1015.2 hPa | 0 mm | - | - | - |
| 1787752483 | 26.67° C | 75% | 1015.1 hPa | 0 mm | - | - | - |
* Rain latest hour (hover to see other rain measurements)
** Current wind speed in m/s (hover to see current wind gust speed)